www.pogodaiklimat.ru

Погода и климат >> Архив погоды >> Россия >> Крым >> Почтовое


ПОГОДА в Почтовом

  • Прогноз погоды в Почтовом
  • Монитор погоды в Почтовом

АРХИВ ПОГОДЫ в Почтовом

Время (UTC), дата Ветер
(напр.,м/с)
 
Видим.   Явления Облачность Т
(С)
Тd
(С)
f
(%)
Тe
(С)
Тes
(С)
Комфортность P
(гПа)
Po
(гПа)
Тmin
(С)
Tmax
(С)
R
(мм)
R24
(мм)
S
(см)
12 12.06 СВ 3 20 км 3/0
[Ac trans Ci fib]
+31.8 +13.2 32 +33 +44 жарко 1006.9 987.4
15 12.06 СВ 4 20 км ясно +29.2 +15.2 43 +32 +34 душно 1007.3 987.6
18 12.06 С 1 20 км ясно +22.7 +15.6 64 +27 +27 душно 1008.2 988.1 +32.2
21 12.06 В 1 20 км 1/0
[Ci fib]
+17.8 +15.4 86 +19 +19 1009.4 988.9
00 13.06 штиль 0 20 км ясно +16.4 +14.1 86 +16 +16 1009.3 988.7
03 13.06 В 1 20 км 3/0
[Ci fib]
+16.3 +14.2 87 +17 +18 1009.5 988.9 +15.8
06 13.06 В 1 20 км 6/0
[Cs]
+26.3 +19.0 64 +31 +41 душно 1009.1 989.2 +15.8
09 13.06 З 3 20 км 8/5 600 м
[Cb calv Ac trans Ci fib]
+30.2 +17.9 48 +35 +40 очень
душно
1009.0 989.4
12 13.06 В 2 10 км гроза, ливневой дождь 10/10 600 м
[Cb cap]
+19.8 +18.0 89 +23 +23 комфорт 1012.1 991.7
15 13.06 СВ 1 20 км {гроза, ливн. осадки} 9/6 600 м
[Cu med, cong Ac trans Ci fib]
+22.4 +21.6 95 +30 +31 очень
душно
1010.9 990.8 12
18 13.06 штиль 0 20 км {гроза, ливн. осадки} 8/3 600 м
[Sc Ac trans Ci fib]
+21.2 +20.7 97 +26 +26 душно 1011.2 991.0 +31.0 12
21 13.06 В 1 20 км 5/0
[Ac trans]
+19.8 +19.5 98 +24 +24 комфорт 1012.6 992.2
00 14.06 В 1 20 км 8/0
[Ac und]
+17.6 +17.3 98 +19 +19 1012.3 991.8
03 14.06 Ю 1 20 км 9/0
[Ac und Ci fib]
+17.2 +16.7 97 +18 +18 1011.6 991.0 +17.0
06 14.06 штиль 0 20 км 8/3 600 м
[Cu hum Ac trans]
+23.7 +17.1 67 +28 +33 душно 1011.9 991.8 +17.0
09 14.06 Ю 1 20 км 9/9 600 м
[Sc]
+27.4 +17.7 55 +32 +34 очень
душно
1012.2 992.3
12 14.06 СВ 4 20 км 8/6 600 м
[Sc Ci fib]
+29.5 +16.2 45 +33 +36 душно 1012.0 992.2
15 14.06 СВ 4 20 км 3/3 600 м
[Cu hum]
+28.7 +17.3 50 +33 +34 очень
душно
1011.4 991.6
18 14.06 СВ 3 20 км 4/1 600 м
[Sc Ci sp]
+23.6 +14.3 56 +26 +26 жарко 1013.4 993.2 +30.3
21 14.06 штиль 0 20 км 4/0
[Ac trans]
+21.0 +16.9 77 +24 +24 комфорт 1013.6 993.3
00 15.06 штиль 0 20 км 3/0
[Ac trans]
+17.3 +15.6 90 +17 +17 1013.7 993.1
03 15.06 штиль 0 20 км 3/0
[Ac trans]
+17.7 +16.2 91 +18 +18 1012.9 992.3 +16.5
06 15.06 СВ 4 50 км 6/0
[Ac lent]
+26.3 +12.8 43 +28 +31 жарко 1012.3 992.3 +16.5
09 15.06 СВ 4 50 км 8/1 600 м
[Cu hum Ac trans Ci fib]
+28.0 +15.7 47 +31 +38 душно 1011.7 991.9
12 15.06 СВ 5
{10}
50 км 6/1 600 м
[Cu hum Ac lent Ci fib]
+30.4 +12.7 34 +31 +37 жарко 1010.5 990.8
15 15.06 В 3
{10}
20 км 3/0
[Ac trans Ci fib]
+29.3 +13.4 38 +31 +34 жарко 1009.7 990.0
18 15.06 СВ 2 20 км 3/0
[Ac trans]
+24.6 +16.5 61 +28 +28 душно 1010.6 990.6 +30.8
21 15.06 ЮВ 1 20 км 5/0
[Ac trans]
+20.4 +16.8 80 +25 +25 комфорт 1010.9 990.6
00 16.06 СВ 1 20 км 3/0
[Ci fib]
+18.6 +15.2 81 +21 +21 комфорт 1010.6 990.1
03 16.06 В 2 50 км ясно +17.8 +14.9 83 +18 +19 1010.2 989.7 +17.5
06 16.06 З 3 50 км ясно +26.5 +12.0 40 +28 +35 жарко 1010.1 990.2 +17.5
09 16.06 З 4 50 км ясно +29.9 +10.5 30 +30 +43 жарко 1009.9 990.2
12 16.06 В 3 50 км ясно +32.4 +11.0 27 +32 +45 жарко 1009.1 989.5
15 16.06 З 2 50 км ясно +32.0 +8.9 24 +31 +35 жарко 1008.6 989.0
18 16.06 В 1 50 км ясно +23.6 +9.9 42 +25 +25 комфорт 1009.7 989.6 +32.7
21 16.06 В 1 20 км ясно +18.7 +10.3 58 +20 +20 1010.6 990.1
00 17.06 В 1 20 км ясно +16.4 +10.2 67 +17 +17 1010.8 990.1
03 17.06 В 1 20 км ясно +14.7 +11.8 83 +15 +16 1011.0 990.2 +13.8
06 17.06 СВ 2 20 км ясно +27.5 +15.8 49 +31 +40 душно 1010.5 990.6 +13.8
09 17.06 СВ 5 20 км 1/1 600 м
[Cu hum]
+29.3 +17.2 48 +33 +42 душно 1010.2 990.5
12 17.06 СВ 4 20 км 1/1 600 м
[Cu med, cong]
+30.2 +15.5 41 +33 +42 душно 1010.1 990.4
15 17.06 СВ 4 20 км 5/5 600 м
[Cu med, cong]
+28.5 +15.8 46 +32 +33 душно 1010.2 990.4
18 17.06 СВ 1 20 км 1/1 600 м
[Sc]
+23.4 +15.1 60 +28 +28 душно 1011.3 991.1 +30.7
21 17.06 штиль 0 20 км ясно +17.6 +15.1 85 +18 +18 1012.5 991.9
00 18.06 штиль 0 20 км ясно +15.6 +13.4 87 +15 +15 1012.9 992.2
03 18.06 В 1 20 км ясно +16.4 +14.5 89 +17 +18 1012.7 992.0 +15.5
06 18.06 СВ 3 20 км 3/0
[Ac trans]
+27.7 +17.0 52 +32 +38 очень
душно
1012.2 992.3 +15.5
09 18.06 СВ 4 20 км 4/4 600 м
[Cu hum]
+29.1 +13.1 37 +30 +38 жарко 1012.3 992.5
12 18.06 СВ 5
{10}
20 км 3/3 600 м
[Cu hum]
+30.0 +10.2 29 +30 +35 жарко 1011.9 992.1
15 18.06 СВ 4 20 км 1/1 600 м
[Cu hum]
+28.6 +10.3 32 +29 +31 жарко 1011.4 991.6
18 18.06 СВ 1 20 км ясно +22.6 +9.6 44 +24 +24 комфорт 1012.5 992.2 +30.6
21 18.06 В 2 20 км ясно +16.9 +10.8 67 +17 +17 1013.4 992.7
00 19.06 В 1 20 км ясно +14.8 +10.4 75 +15 +15 1013.2 992.4
03 19.06 В 2 20 км ясно +14.9 +8.6 66 +15 +15 1013.0 992.2 +14.1

 

Местоположение метеостанции Почтовое (Крым, Россия): широта 44.83 долгота 33.95 высота над уровнем моря 176 м.

В архиве по умолчанию представлена погода в Почтовом за последнюю неделю. Архивные данные за месяц целиком и за предыдущие месяцы, начиная с января 2011 года, Вы можете получить, выбрав интересующий диапазон дат из раскрывающегося списка и нажав кнопку "Ввод!".


*Определитесь, кто Вы:
робот инопланетянин человек

Внимание! Время в таблицах - всемирное. Для получения местного времени необходимо прибавить поправку, которая равна 3 ч.

Смотрите также архив погоды в соседних городах и на ближайших метеорологических станциях:

Погода в Симферополе город (Крым, Россия) (19 км)
Погода в Симферополе (Крым, Россия) (22 км)
Погода на Ангарском Перевале (Крым, Россия) (33 км)
Погода в Алуште (Крым, Россия) (40 км)
Погода в Севастополе (город Севастополь, Россия) (41 км)
Погода на Ай-Петри (Крым, Россия) (41 км)
Погода в Никитском саду (Крым, Россия) (42 км)
Погода в Ялте (Крым, Россия) (43 км)
Погода в Херсонесском Маяке (город Севастополь, Россия) (53 км)
Погода в Белогорске (Крым, Россия) (57 км)

Пояснения к столбцам:

Ветер - указаны скорость ветра в м/с - средняя за 10 мин, порывы в срок и между сроками (в фигурных скобках) и направление, откуда дует ветер: С - северный, СВ - северо-восточный, В - восточный, ЮВ - юго-восточный, Ю - южный, ЮЗ - юго-западный, З - западный, СЗ - северо-западный.
Видимость - горизонтальная дальность видимости в метрах или километрах. При видимости от 1 до 10 км при отсутствии осадков обычно наблюдается дымка, при ухудшении видимости до 1 км и менее - туман. В сухую погоду видимость может ухудшаться дымом, пылью или мглою.
Явления - указаны атмосферные явления, наблюдавшиеся в срок или в последний час перед сроком; фигурными скобками обозначены явления, наблюдавшиеся между сроками (за 1-3 часа до срока); квадратными скобками обозначены град или гололедные отложения с указанием их диаметра в мм.
Облачность - указаны через наклонную черту общая и нижняя облачность в баллах и высота нижней границы облаков в метрах; квадратными скобками обозначены формы облаков: Ci - перистые, Cs - перисто-слоистые, Cc - перисто-кучевые, Ac - высококучевые, As - высокослоистые, Sc - слоисто-кучевые, Ns - слоисто-дождевые, Cu - кучевые, Cb - кучево-дождевые. Подробнее классификацию облаков см. в Атласе облаков (PDF).
T - Температура воздуха - температура, измеренная на высоте 2 м над землей.
Td - Температура точки росы - температура, при понижении до которой содержащийся в воздухе водяной пар достигнет насыщения.
f - Относительная влажность воздуха - влажноcть воздуха, измеренная на высоте 2 м над землей.
Te - Эффективная температура - температура, которую ощущает одетый по сезону человек в тени. Характеристика душности погоды. При расчете учитывается влияние влажности воздуха и скорости ветра на теплоощущения человека.
Tes - Эффективная температура на солнце - температура, которую ощущает человек, с поправкой на солнечный нагрев. Характеристика знойности погоды. Зависит от высоты солнца над горизонтом, облачности и скорости ветра. Ночью, в пасмурную погоду, а также при ветре 12 м/с и более поправка равна нулю.
P - Атмосферное давление - приведенное к уровню моря атмосферное давление.
Po - Атмосферное давление - измеренное на уровне метеостанции атмосферное давление.
Tmin - Минимальная температура - минимум температуры воздуха на высоте 2 м над землей.
Tmax - Максимальная температура - максимум температуры воздуха на высоте 2 м над землей.
R - Количество осадков - Количество выпавших осадков за период времени, мм. При наведении курсора мыши на число - период времени, за который выпало указанное количество осадков.
R24 - Количество осадков - Количество выпавших осадков за 24 часа, мм.
S - Снежный покров - Высота снежного покрова, см. При наведении курсора мыши на число - состояние снежного покрова и степень покрытия местности в баллах.